Zurück zum Katalog

STARLINK-6042

AktivKommunikationVLEO
NORAD 56808·PAYLOAD·🇺🇸 United States

Gestartet May 31, 2023 von Vandenberg Space Force Base

Loading…

Nächste Überflüge (nächste 24 Stunden)

TLE

AktuellSource: CelesTrak SupGP

Epoche: Sep 15, 2026, 02:50 UTC

1 56808C 23078AT  26258.11854167  .00025056  00000+0  20999-2 0  2589
2 56808  70.0011 156.9212 0002964 272.7861  11.3208 14.98317368    14

Verfolge STARLINK-6042 in Echtzeit mit AllMySat

Download on the App Store